EDT,Max TemperatureF,Mean TemperatureF,Min TemperatureF,Max Dew PointF,MeanDew PointF,Min DewpointF,Max Humidity, Mean Humidity, Min Humidity, Max Sea Level PressureIn, Mean Sea Level PressureIn, Min Sea Level PressureIn, Max VisibilityMiles, Mean VisibilityMiles, Min VisibilityMiles, Max Wind SpeedMPH, Mean Wind SpeedMPH, Max Gust SpeedMPH,PrecipitationIn, CloudCover, Events, WindDirDegrees
2013-10-1,70,54,37,53,44,35,100,76,51,30.04,29.99,29.93,10,10,5,14,3,20,0.00,4,,238
2013-10-2,73,56,39,59,49,37,100,71,41,30.03,29.92,29.88,10,7,0,17,7,28,0.00,4,Fog,247
2013-10-3,70,51,32,46,40,32,100,69,37,30.13,30.09,30.04,10,10,7,10,2,15,0.00,0,,237
2013-10-4,60,47,34,54,40,33,100,82,64,30.12,30.08,30.06,10,6,0,9,3,12,0.01,6,Fog-Rain,65
2013-10-5,61,54,46,45,40,33,93,67,40,30.15,30.12,30.08,10,10,4,10,4,13,0.02,7,Rain,57
2013-10-6,63,55,46,57,49,35,100,78,56,30.14,30.02,29.93,10,6,0,14,4,20,0.33,6,Fog-Rain,106
2013-10-7,72,60,47,61,53,44,100,81,61,29.92,29.76,29.60,10,6,1,29,13,39,0.78,7,Rain,222
2013-10-8,56,42,28,45,36,28,100,69,38,30.41,30.18,29.89,10,10,6,14,5,23,0.00,3,,263
2013-10-9,64,44,24,41,29,21,100,65,30,30.48,30.41,30.33,10,10,10,10,1,13,0.00,1,,249
2013-10-10,66,46,26,44,33,25,100,66,31,30.37,30.30,30.21,10,10,7,7,1,9,0.00,1,,30
2013-10-11,72,50,27,42,31,18,100,57,13,30.23,30.20,30.16,10,10,9,12,2,14,0.00,0,,58
2013-10-12,73,51,28,47,36,27,100,67,33,30.31,30.26,30.21,10,8,0,12,3,17,0.00,1,Fog,173
2013-10-13,69,50,30,47,38,30,100,70,40,30.38,30.32,30.28,10,5,0,14,3,21,0.00,3,Fog,206
2013-10-14,57,51,44,54,50,45,100,84,67,30.31,30.28,30.24,10,4,0,12,4,14,0.10,8,Fog-Rain,223
2013-10-15,63,53,42,50,45,41,100,80,60,30.31,30.24,30.07,10,4,0,9,1,14,0.00,6,Fog,226
2013-10-16,65,54,43,51,47,38,100,71,42,30.06,29.92,29.78,10,10,6,20,7,25,0.09,3,,198
2013-10-17,55,48,41,54,48,39,100,89,77,29.85,29.79,29.70,10,7,0,14,5,17,0.36,7,Fog-Rain,233
2013-10-18,55,47,38,47,42,34,100,76,52,29.89,29.75,29.65,10,9,3,22,8,32,0.08,7,Rain,242
2013-10-19,57,43,29,44,35,28,100,80,59,29.91,29.83,29.60,10,5,0,23,8,28,0.10,4,Fog-Rain,204
2013-10-20,50,39,27,43,36,27,100,75,50,30.01,29.77,29.59,10,9,3,18,8,30,T,6,Rain,246
2013-10-21,60,44,27,40,33,25,100,69,37,30.04,29.96,29.81,10,9,5,22,8,28,T,5,Rain,211
2013-10-22,52,41,30,43,36,27,92,73,54,29.79,29.73,29.67,10,9,2,20,9,29,0.05,7,Rain,233
2013-10-23,44,36,28,32,29,26,92,73,53,29.76,29.70,29.63,10,10,10,13,5,26,0.00,6,,244
2013-10-24,39,32,25,34,30,23,92,81,70,29.89,29.74,29.64,10,7,2,20,7,30,0.03,7,Snow,255
2013-10-25,37,30,22,29,26,22,92,78,64,30.13,30.02,29.85,10,10,10,13,5,21,0.00,7,,262
2013-10-26,36,29,22,34,31,22,100,95,89,30.09,29.86,29.72,10,5,0,23,13,31,0.05,8,Fog-Snow,210
2013-10-27,38,34,30,36,32,28,92,81,70,30.01,29.83,29.69,10,8,2,15,6,20,0.05,7,Snow,234
2013-10-28,39,27,15,36,29,16,96,72,47,30.39,30.12,29.93,10,9,2,16,5,26,0.02,6,Rain-Snow,243
2013-10-29,39,25,11,25,16,9,100,66,32,30.48,30.39,30.34,10,6,0,9,2,14,0.00,3,Fog,197
2013-10-30,38,31,23,34,29,19,100,89,78,30.31,30.23,30.14,10,7,1,9,3,14,0.01,8,Snow,223
2013-10-31,56,42,28,52,43,27,100,93,86,30.19,29.87,29.54,10,6,2,20,6,25,0.38,7,Rain,217